DateTimeUTC,F1_A11,F1_S11,BsB_S11,BsG_S11,BsR_S11,BbsB_S11,BbsG_S11,BbsR_S11,BaB_A11,BaG_A11,BaR_A11,Tu_S11,T_S11,Uu_S11,U_S11,P_S11,T1_A11
2021-05-17T14:00:00Z,00000200,21000000,,,,,,,-000.16,0000.32,-000.04,19.8,25.9,,00.0,0674.5,31.0
2021-05-17T14:01:00Z,00000200,21000000,,,,,,,0000.46,0000.09,0000.15,19.8,25.9,,00.0,0674.5,31.0
2021-05-17T14:02:00Z,00000200,21010000,,,,,,,-000.18,-000.11,-000.17,19.8,25.9,,00.0,0674.5,31.0
2021-05-17T14:03:00Z,00000200,61000000,,,,,,,0000.98,0001.05,0000.70,19.8,25.9,,00.0,0674.5,31.0
2021-05-17T14:04:00Z,00000200,41000000,0002.87,0002.09,0001.15,0000.78,0000.48,0000.20,0001.62,0001.39,0001.35,19.9,25.8,,00.0,0675.4,31.0
2021-05-17T14:05:00Z,00000200,01000000,0003.26,0002.09,0001.22,-000.20,0000.33,0000.15,0001.35,0001.04,0000.66,19.9,25.8,,00.0,0675.5,31.0
2021-05-17T14:06:00Z,00000200,01000000,0002.78,0001.76,0001.26,0000.49,0000.12,0000.05,0001.54,0001.56,0001.35,20.0,25.8,,00.0,0675.5,31.0
2021-05-17T14:07:00Z,00000200,01000000,0003.25,0002.02,0001.18,0000.61,0000.16,-000.08,0001.49,0001.13,0000.84,20.0,25.8,,00.0,0675.5,31.0
2021-05-17T14:08:00Z,00000200,01000000,0003.08,0002.38,0001.05,0000.16,0000.13,0000.21,0001.17,0000.96,0000.98,19.9,25.8,,00.0,0675.5,31.0
2021-05-17T14:09:00Z,00000200,01000000,0003.17,0002.22,0001.47,0000.67,0000.26,0000.20,0001.77,0001.52,0000.94,19.9,25.8,,00.0,0675.5,31.0
2021-05-17T14:10:00Z,00000200,01000000,0003.31,0001.88,0001.31,0000.39,0000.37,-000.03,0001.33,0001.43,0000.98,19.9,25.8,,00.0,0675.5,31.0
2021-05-17T14:11:00Z,00000200,01000000,0002.64,0002.01,0001.22,0000.46,0000.31,0000.06,0001.71,0001.45,0001.02,20.0,25.8,,00.0,0675.5,31.0
2021-05-17T14:12:00Z,00000200,01000000,0003.17,0001.95,0001.41,0000.50,0000.34,0000.35,0001.16,0001.37,0000.85,20.0,25.8,,00.0,0675.5,31.0
2021-05-17T14:13:00Z,00000200,01000000,0003.06,0002.13,0000.87,0000.42,0000.18,-000.07,0001.84,0001.57,0001.22,19.9,25.8,,00.0,0675.5,31.0
2021-05-17T14:14:00Z,00000200,01000000,0003.11,0002.33,0001.32,0000.57,0000.07,0000.55,0001.44,0001.03,0001.09,19.9,25.8,,00.0,0675.5,31.0
2021-05-17T14:15:00Z,00000200,01000000,0002.75,0002.16,0001.11,0000.50,0000.15,0000.19,0001.88,0001.76,0001.35,19.9,25.8,,00.0,0675.5,31.0
2021-05-17T14:16:00Z,00000200,01000000,0003.52,0001.97,0001.39,0000.15,0000.28,0000.12,0001.77,0001.72,0001.29,19.9,25.8,,00.0,0675.5,31.0
2021-05-17T14:17:00Z,00000200,01000000,0002.84,0001.93,0001.28,0000.52,0000.34,0000.50,0001.40,0001.27,0000.78,19.9,25.8,,00.0,0675.5,31.0
2021-05-17T14:18:00Z,00000200,01000000,0003.12,0001.97,0001.03,0000.86,0000.11,0000.00,0002.14,0001.77,0001.25,19.9,25.8,,00.0,0675.5,31.0
2021-05-17T14:19:00Z,00000200,01000000,0003.51,0001.62,0001.38,0000.33,0000.24,0000.33,0001.47,0001.68,0001.22,19.9,25.8,,00.0,0675.5,31.0
2021-05-17T14:20:00Z,00000200,01000000,0003.39,0002.26,0001.31,0000.44,0000.29,0000.23,0001.70,0001.42,0001.14,20.0,25.8,,00.0,0675.5,31.0
2021-05-17T14:21:00Z,00000200,01000000,0003.43,0001.84,0001.07,0000.47,0000.36,0000.03,0001.86,0001.42,0001.26,19.9,25.8,,00.0,0675.5,31.0
2021-05-17T14:22:00Z,00000200,01000000,0002.51,0001.87,0000.70,0000.34,0000.28,0000.07,0001.40,0001.30,0001.16,20.0,25.8,,00.0,0675.5,31.0
2021-05-17T14:23:00Z,00000200,01000000,0002.39,0002.24,0001.40,0000.61,0000.31,0000.12,0002.30,0002.22,0001.46,20.0,25.8,,00.0,0675.5,31.0
2021-05-17T14:24:00Z,00000200,01000000,0002.42,0002.04,0001.01,0000.15,0000.28,-000.08,0001.72,0002.02,0001.35,20.0,25.8,,00.0,0675.5,31.0
2021-05-17T14:25:00Z,00000200,01000000,0003.13,0001.52,0001.00,0000.37,0000.50,-000.07,0001.97,0001.26,0001.28,20.0,25.8,,00.0,0675.5,31.0
2021-05-17T14:26:00Z,00000200,01000000,0002.66,0001.93,0001.13,0001.01,0000.12,-000.06,0001.73,0001.55,0001.12,19.9,25.8,,00.0,0675.5,31.0
2021-05-17T14:27:00Z,00000200,01000000,0003.18,0002.03,0001.26,0000.73,0000.30,0000.08,0001.76,0001.98,0001.49,20.0,25.8,,00.0,0675.5,31.0
2021-05-17T14:28:00Z,00000200,01000000,0003.25,0002.40,0001.33,0000.48,0000.32,0000.27,0002.00,0001.51,0000.97,20.0,25.8,,00.0,0675.6,31.0
2021-05-17T14:29:00Z,00000200,01000000,0003.04,0002.01,0001.32,0000.52,0000.17,0000.08,0002.35,0002.29,0002.00,20.0,25.8,,00.0,0675.6,31.0
2021-05-17T14:30:00Z,00000200,01000000,0003.08,0001.80,0001.23,0000.43,0000.28,0000.32,0002.10,0001.86,0001.32,20.0,25.8,,00.0,0675.6,31.0
2021-05-17T14:31:00Z,00000200,01000000,0003.37,0002.09,0001.16,0000.63,0000.15,-000.05,0002.56,0002.46,0001.72,19.9,25.8,,00.0,0675.6,31.0
2021-05-17T14:32:00Z,00000200,01000000,0003.51,0002.00,0001.39,0000.07,0000.22,0000.21,0002.95,0002.25,0002.21,20.0,25.8,,00.0,0675.6,31.0
2021-05-17T14:33:00Z,00000200,01000000,0003.24,0002.01,0001.13,-000.03,0000.32,0000.17,0002.39,0002.23,0001.64,20.0,25.8,,00.0,0675.6,31.0
2021-05-17T14:34:00Z,00000200,01000000,0003.07,0001.99,0001.42,0000.33,0000.44,0000.20,0002.56,0002.36,0001.88,20.0,25.8,,00.0,0675.5,31.0
2021-05-17T14:35:00Z,00000200,01000000,0002.71,0002.03,0001.56,0001.12,0000.37,-000.22,0002.84,0002.49,0001.58,20.0,25.8,,00.0,0675.5,31.0
2021-05-17T14:36:00Z,00000200,01000000,0003.06,0002.01,0001.31,0000.71,0000.19,0000.21,0002.61,0002.29,0002.07,20.0,25.8,,00.0,0675.5,31.0
2021-05-17T14:37:00Z,00000200,01000000,0003.30,0002.23,0001.44,0000.64,0000.51,0000.41,0002.99,0003.42,0002.13,20.0,25.8,,00.0,0675.5,31.0
2021-05-17T14:38:00Z,00000200,01000000,0002.34,0002.00,0001.23,0000.20,0000.17,0000.06,0002.78,0002.45,0002.47,20.0,25.8,,00.0,0675.5,31.0
2021-05-17T14:39:00Z,00000200,01000000,0003.10,0001.98,0001.21,0000.63,0000.21,0000.17,0003.18,0002.38,0001.96,20.0,25.8,,00.0,0675.5,31.0
2021-05-17T14:40:00Z,00000200,01000000,0003.01,0002.30,0001.21,0000.25,0000.11,-000.22,0002.88,0003.00,0002.30,20.0,25.8,,00.0,0675.5,31.0
2021-05-17T14:41:00Z,00000200,01000000,0002.99,0001.94,0001.59,0000.30,0000.25,0000.33,0003.03,0002.70,0001.74,20.0,25.8,,00.0,0675.5,31.0
2021-05-17T14:42:00Z,00000200,01000000,0003.07,0002.32,0001.12,0000.16,0000.34,0000.29,0002.71,0002.10,0001.76,20.0,25.8,,00.0,0675.5,31.0
2021-05-17T14:43:00Z,00000200,01000000,0002.80,0002.03,0001.34,-000.00,0000.19,0000.20,0002.24,0002.27,0001.60,20.0,25.8,,00.0,0675.5,31.0
2021-05-17T14:44:00Z,00000200,01000000,0003.04,0002.27,0001.51,0000.47,-000.09,0000.16,0002.47,0002.33,0001.89,20.0,25.8,,00.0,0675.5,31.0
2021-05-17T14:45:00Z,00000200,01000000,0002.90,0001.91,0001.24,0000.77,0000.27,0000.04,0002.41,0001.91,0001.47,20.0,25.8,,00.0,0675.5,31.0
2021-05-17T14:46:00Z,00000200,01000000,0002.54,0001.97,0001.15,0000.35,0000.42,0000.04,0002.04,0002.17,0001.52,20.0,25.8,,00.0,0675.5,31.0
2021-05-17T14:47:00Z,00000200,01000000,0003.25,0002.10,0000.99,0000.21,0000.32,0000.02,0002.37,0001.75,0001.76,20.0,25.9,,00.0,0675.5,31.1
2021-05-17T14:48:00Z,00000200,01000000,0003.18,0001.89,0001.28,-000.05,0000.29,0000.14,0002.24,0002.08,0001.34,20.0,25.8,,00.0,0675.5,31.0
2021-05-17T14:49:00Z,00000200,01000000,0002.59,0002.06,0000.93,0000.49,0000.02,0000.03,0002.03,0001.90,0001.57,20.0,25.9,,00.0,0675.5,31.1
2021-05-17T14:50:00Z,00000200,01000000,0003.36,0001.92,0001.35,-000.10,0000.15,-000.04,0002.18,0002.23,0001.51,20.0,25.8,,00.0,0675.5,31.0
2021-05-17T14:51:00Z,00000200,01000000,0003.38,0002.20,0001.21,0000.57,0000.61,0000.12,0001.55,0001.82,0001.24,20.0,25.8,,00.0,0675.5,31.0
2021-05-17T14:52:00Z,00000200,01000000,0003.84,0001.68,0001.35,0000.69,0000.34,0000.16,0001.82,0001.22,0001.14,20.0,25.8,,00.0,0675.5,31.0
2021-05-17T14:53:00Z,00000200,01000000,0002.91,0001.82,0001.13,0000.52,0000.17,0000.24,0001.95,0001.97,0001.32,20.0,25.8,,00.0,0675.5,31.0
2021-05-17T14:54:00Z,00000200,01000000,0003.12,0002.11,0001.09,0000.68,0000.20,0000.11,0001.72,0001.12,0001.04,20.0,25.9,,00.0,0675.5,31.0
2021-05-17T14:55:00Z,00000200,01000000,0003.41,0002.01,0001.16,0000.94,0000.26,-000.18,0002.15,0002.08,0001.59,20.0,25.9,,00.0,0675.5,31.0
2021-05-17T14:56:00Z,00000200,01000000,0003.05,0001.74,0001.35,0000.65,0000.42,0000.00,0001.98,0001.59,0001.43,20.0,25.9,,00.0,0675.5,31.0
2021-05-17T14:57:00Z,00000200,41000000,,,,,,,0000.34,0000.34,0000.03,20.1,25.9,,00.0,0675.6,31.0
2021-05-17T14:58:00Z,00000200,61000000,,,,,,,-000.35,0000.07,0000.03,19.9,26.0,,00.0,0674.6,31.0
2021-05-17T14:59:00Z,00000200,21000000,,,,,,,0000.44,0000.44,0000.31,19.9,26.1,,00.0,0674.5,31.1
